Location: Adrasan
(36.3319°N, 30.4314°E)
Time: 07:32:17
(UTC+00:00)

DELTA 2 R/B (1) - Pass Details

Date: 09 December 2023
Orbit: 788 x 802 km, 39.6° (Epoch: 29 February)

Event Time Altitude Azimuth Distance (km) Brightness Sun altitude
Rises 17:05:48 0° 258° (WSW) 3,291 8.0 -28.0°
Reaches altitude 10° 17:08:17 10° 259° (W) 2,360 7.0 -28.5°
Enters shadow 17:13:14 68° 289° (WNW) 854 3.7 -29.5°
